Lapse_Rate
5.5 5.4 5.3 5.0 4.8 4.7 4.7 4.6 4.6 4.5 4.6 4.7 4.7 4.9 5.2 5.3 5.5 5.8 6.3 6.6 6.4 6.4 6.6 6.5 6.3 6.3 5.9 5.3 5.2 5.5 5.0 5.6 6.0 5.5 6.0 6.4 6.8 6.5 5.9 5.7 5.7 5.7 5.7 6.2 6.7
5.3 5.2 5.0 4.9 4.6 4.6 4.5 4.5 4.4 4.4 4.4 4.6 4.5 4.6 4.9 5.3 5.4 5.5 5.9 6.1 6.5 6.4 6.3 6.9 6.5 6.2 5.9 5.6 5.3 5.1 5.3 5.7 6.1 5.7 5.7 6.0 6.2 6.3 5.7 5.4 5.5 5.8 6.0 6.0 6.2
5.2 5.1 5.0 4.8 4.5 4.6 4.5 4.3 4.4 4.3 4.3 4.5 4.4 4.4 4.7 5.0 5.3 5.4 5.5 5.8 6.0 6.4 6.6 6.3 6.3 6.1 6.1 5.6 5.3 5.2 5.1 5.8 5.3 5.3 5.6 5.5 5.7 6.3 5.4 5.3 5.5 6.1 5.6 5.7 6.0
5.0 4.9 4.9 4.7 4.8 4.8 4.7 4.4 4.2 4.2 4.3 4.3 4.6 4.7 4.8 5.1 5.3 4.6 5.3 5.6 5.9 6.1 6.2 6.1 6.1 5.9 5.3 5.1 5.5 5.0 4.8 5.0 5.2 5.1 5.1 5.2 5.5 5.6 5.4 5.3 5.7 6.4 6.3 6.1 6.2
4.5 4.4 4.5 4.5 4.4 4.5 4.4 4.3 4.1 4.3 4.6 4.6 4.7 4.9 4.9 5.2 5.3 5.1 5.2 5.7 6.1 6.2 6.0 5.9 5.8 5.8 5.4 5.3 5.5 5.1 5.1 5.1 4.9 5.1 5.6 5.2 5.1 6.0 5.5 5.2 6.6 6.3 6.2 6.4 6.5
4.5 4.3 4.2 4.1 4.1 4.0 4.0 4.1 4.4 4.4 4.6 4.6 4.9 5.0 5.0 5.3 5.0 5.4 5.6 5.8 6.0 6.0 5.8 6.0 5.9 5.5 5.3 5.8 6.0 6.0 5.5 5.1 4.9 5.2 5.9 5.5 5.6 5.1 5.5 6.8 6.3 6.2 6.2 6.5 6.7
4.2 4.1 3.9 3.7 3.9 3.9 4.1 4.1 4.3 4.5 4.7 4.9 5.0 5.1 5.4 5.7 5.8 6.1 6.3 6.3 6.2 6.1 6.2 6.1 5.9 5.3 5.3 6.2 6.7 6.6 5.8 5.5 5.6 5.6 5.4 5.6 5.2 5.2 6.7 6.7 5.6 5.9 5.7 6.6 7.0
4.1 4.2 3.9 3.7 3.8 4.2 4.1 4.3 4.6 4.9 5.1 5.3 5.5 5.5 6.2 6.3 6.4 6.5 6.5 6.4 6.3 6.3 6.3 6.0 6.0 5.8 5.7 6.4 7.0 6.5 6.2 6.1 6.7 6.0 5.9 5.7 5.8 6.1 6.3 6.2 5.8 5.9 6.0 6.6 7.2
3.9 3.8 3.8 3.9 4.2 4.6 4.7 5.2 5.4 5.5 5.6 5.6 5.5 5.9 6.3 6.2 6.4 6.4 6.4 6.4 6.2 6.5 6.3 6.2 6.3 6.3 6.6 6.6 6.9 6.8 7.3 7.0 6.6 6.4 6.2 5.8 6.1 6.1 6.2 6.0 6.0 6.0 6.2 6.3 6.8
4.2 4.2 4.3 4.8 5.5 5.7 5.6 5.8 5.8 5.9 5.8 5.9 6.2 6.4 6.1 6.1 6.4 6.5 6.4 6.4 6.2 6.3 6.3 6.3 6.5 6.6 7.0 6.7 7.8 8.2 7.4 7.0 6.5 6.5 6.1 5.9 5.8 6.1 6.2 5.8 5.8 6.0 6.0 6.3 6.9
4.9 5.1 5.3 5.3 5.4 5.7 5.7 5.9 5.7 6.1 6.2 6.2 6.4 6.6 6.3 6.4 6.9 6.5 6.5 6.3 6.3 6.3 6.1 6.7 6.6 7.1 7.2 7.2 7.2 7.2 6.6 6.3 6.5 6.3 5.9 5.6 5.9 6.0 6.0 5.8 5.8 5.9 6.0 6.3 6.9
5.2 5.1 5.2 5.3 5.5 5.7 5.9 5.9 5.8 5.9 6.7 6.6 6.3 6.2 6.4 6.7 7.0 6.8 6.5 6.4 6.3 6.0 5.9 6.3 6.7 7.5 7.4 7.0 6.7 6.7 6.8 6.8 6.6 6.5 6.1 6.1 6.1 6.0 5.9 6.1 6.1 5.9 5.9 6.5 7.1
5.1 5.2 5.4 5.5 5.6 5.9 6.1 6.2 6.3 6.5 6.8 6.7 6.4 6.4 6.5 6.6 6.5 6.7 7.0 6.6 6.1 6.3 6.2 6.7 7.4 7.1 7.1 7.0 6.8 7.0 7.0 6.9 6.6 6.6 6.4 6.2 6.3 6.6 6.3 5.9 5.8 5.8 6.0 6.6 7.0
5.5 5.5 5.7 5.7 5.8 6.0 6.2 6.3 6.3 6.4 6.5 6.4 6.4 6.4 6.7 6.7 6.6 6.6 6.8 6.6 5.9 6.3 6.5 6.5 6.9 7.3 7.1 7.2 6.9 7.4 6.9 6.5 6.7 6.6 7.4 6.3 6.8 6.6 6.4 6.3 6.1 5.9 6.3 6.8 7.3
5.6 5.7 6.0 5.9 6.1 6.1 6.2 6.3 6.2 6.6 7.5 6.3 6.4 6.7 6.8 6.8 6.6 6.7 6.8 6.8 6.1 6.3 6.4 6.8 6.6 7.4 7.2 7.3 7.0 7.2 6.5 6.6 6.6 6.4 6.2 6.7 6.4 6.9 6.3 6.4 6.3 6.4 6.6 7.2 7.5
5.8 6.1 6.3 6.4 6.3 6.2 6.4 6.3 6.4 6.7 7.7 6.4 6.5 6.7 6.8 6.9 6.7 6.7 6.6 6.8 6.6 6.5 6.4 6.7 6.7 6.9 7.1 6.9 6.9 6.9 6.8 6.9 6.7 6.6 6.7 7.1 6.4 7.1 7.0 6.6 6.3 6.2 6.5 6.7 7.2
6.1 6.6 6.8 6.7 6.8 6.9 6.7 6.6 6.5 7.3 7.1 6.1 6.5 6.7 6.8 6.7 6.7 6.8 6.5 6.6 7.0 7.0 7.3 7.1 7.1 6.9 7.0 6.8 6.9 6.8 6.7 7.8 7.9 6.9 7.7 6.9 6.5 7.0 6.7 5.9 5.4 5.9 6.3 6.7 7.4
6.6 7.0 7.1 7.2 7.3 7.1 6.9 6.9 7.1 6.5 6.7 7.0 7.2 7.2 6.6 6.3 6.9 6.8 7.0 7.1 6.8 6.9 7.2 7.7 8.0 7.4 7.5 7.2 7.4 7.3 7.1 7.7 7.7 8.1 8.4 7.2 7.3 7.3 6.3 6.4 6.1 6.6 6.8 6.9 7.6
6.9 7.2 7.5 7.4 7.3 7.2 7.0 6.4 6.7 5.9 6.1 6.5 6.7 6.4 7.0 6.3 6.5 6.7 7.2 7.4 7.1 6.9 7.3 7.6 7.8 7.5 7.4 7.5 7.4 7.1 7.0 6.9 6.8 6.8 6.7 7.4 7.7 6.9 6.4 5.9 5.7 6.6 6.9 7.4 7.8
7.4 7.4 7.4 7.3 7.1 6.9 6.5 6.3 6.0 6.2 6.1 5.6 5.7 5.7 6.2 5.9 6.5 6.6 7.3 6.9 6.8 7.0 6.8 7.4 7.7 7.5 7.5 7.5 7.2 7.2 6.9 6.5 6.6 7.2 7.6 8.8 8.2 7.6 6.0 5.6 6.4 7.0 7.2 7.5 7.9
7.5 7.3 7.3 7.1 6.8 6.4 6.1 5.7 5.8 5.5 5.3 5.1 5.1 5.1 5.6 5.6 6.0 6.5 7.3 6.9 7.1 6.9 7.2 7.3 7.5 7.8 7.5 7.4 7.7 6.9 6.9 6.4 6.3 6.5 7.7 8.1 6.7 6.0 6.3 6.3 6.6 6.8 7.2 7.8 8.0
7.3 7.2 7.0 6.6 6.3 6.1 5.3 5.4 5.2 4.9 4.9 4.9 5.1 5.0 5.4 5.7 5.9 6.3 6.9 7.3 6.8 6.9 7.1 7.3 7.3 7.9 8.3 8.0 7.5 7.6 7.5 7.0 7.2 7.2 6.3 6.1 7.1 5.8 5.8 6.2 6.5 6.1 6.4 7.0 7.6
7.1 6.8 6.7 6.4 6.1 5.4 5.1 5.1 5.1 5.2 5.0 5.4 5.8 6.2 6.5 6.8 6.9 6.9 7.0 7.1 7.1 6.8 7.0 7.2 7.1 7.8 8.0 7.4 7.1 7.3 7.2 6.9 6.5 6.1 6.4 6.6 7.1 6.0 5.8 6.0 6.0 6.0 6.4 6.5 6.7
6.9 6.6 6.4 6.0 5.7 5.3 5.1 5.1 5.1 5.9 6.3 6.5 6.7 6.7 6.6 7.2 7.6 7.1 7.4 7.4 7.5 7.0 7.0 7.1 7.1 7.8 9.0 7.2 7.3 7.4 7.3 7.1 6.7 6.5 7.0 6.8 6.4 6.2 5.6 5.6 5.6 6.1 6.2 6.5 6.7
6.7 6.5 6.3 5.7 4.8 5.1 5.3 5.3 5.9 6.4 6.6 6.7 6.9 6.9 7.5 7.3 7.8 7.9 8.1 7.6 7.6 7.1 7.1 6.7 7.1 7.3 7.0 7.1 6.5 7.4 7.6 7.4 7.0 6.8 6.7 7.3 7.2 6.9 6.4 5.7 5.6 5.7 5.9 6.2 6.4
6.6 6.4 5.8 5.5 5.3 5.1 5.2 5.3 5.8 5.8 6.3 6.3 6.8 7.0 7.2 7.0 7.2 7.7 7.6 7.6 7.6 7.3 6.9 6.6 7.0 7.2 7.1 6.7 6.9 7.2 7.4 7.5 7.2 7.1 7.0 6.8 6.9 6.6 6.1 6.0 5.9 5.7 5.5 5.8 5.7
6.6 6.1 5.7 5.6 4.9 4.9 4.9 5.2 5.8 5.9 6.1 6.3 6.5 7.3 7.3 7.3 7.7 7.9 7.9 8.0 7.8 7.0 6.5 6.6 6.6 7.2 7.6 7.5 7.4 7.8 7.8 7.7 7.4 7.3 7.0 6.8 6.7 6.3 6.4 6.1 6.1 6.0 5.6 5.6 5.3
Wind_Speed
9 10 11 11 12 14 15 17 18 19 19 19 20 20 21 22 25 18 13 2 4 7 5 9 9 9 13 14 11 11 11 17 20 14 15 9 14 15 10 13 13 9 7 6 8
7 8 10 12 13 14 16 18 20 21 20 20 19 18 19 22 20 17 9 8 8 6 9 15 13 12 11 13 9 14 15 23 19 13 14 13 15 15 9 12 12 13 10 3 6
7 8 10 12 14 15 17 20 21 22 22 20 18 17 16 19 8 1 6 8 10 10 6 9 9 13 14 9 15 12 22 17 11 14 17 16 17 17 15 19 14 17 13 11 9
7 9 10 12 13 14 17 19 22 22 22 20 16 16 16 7 6 4 4 5 6 11 8 10 10 14 13 15 16 15 14 17 17 15 17 17 18 21 20 18 17 20 19 16 16
8 10 11 13 15 17 19 19 22 24 21 20 14 12 9 6 9 3 1 2 5 9 10 11 12 11 13 9 15 17 19 18 17 19 22 22 24 25 24 19 21 20 18 18 18
8 10 12 14 17 20 22 23 23 24 21 21 12 7 7 9 3 2 2 3 8 9 9 9 6 9 8 10 13 3 9 14 13 16 19 20 22 22 17 19 20 20 18 19 19
8 9 13 17 19 22 22 26 25 25 22 16 6 10 9 14 2 3 5 7 6 12 12 11 8 9 4 8 10 10 14 15 17 18 18 16 22 24 22 21 21 20 17 20 19
7 9 13 18 21 23 26 26 25 22 10 1 14 9 7 2 6 10 9 11 11 9 10 7 8 12 10 9 10 10 12 15 6 5 9 10 16 13 13 14 16 16 16 17 18
8 11 14 18 22 25 27 24 16 4 7 15 8 5 6 2 5 1 7 5 5 9 7 3 5 11 7 11 11 10 10 11 11 11 13 12 12 8 5 9 12 14 14 14 14
8 12 15 18 22 25 25 14 3 7 6 3 1 4 5 2 5 5 2 6 6 8 9 9 8 9 10 10 9 7 10 11 10 4 14 19 19 15 15 14 15 14 13 13 14
8 12 15 18 22 20 11 2 2 5 3 8 8 11 15 10 10 5 1 5 8 10 11 13 11 15 16 16 17 14 13 17 16 16 19 21 22 20 18 18 17 17 17 16 17
8 11 14 17 15 14 7 5 4 4 8 5 8 8 12 8 5 8 7 8 10 13 8 7 15 14 12 13 16 16 15 16 16 12 12 19 22 18 17 19 22 20 18 18 17
8 11 14 19 4 3 11 7 2 4 5 3 3 3 3 5 3 3 8 11 10 13 12 14 5 3 12 13 13 14 14 12 13 14 19 21 23 17 17 25 23 21 21 20 19
9 11 14 19 3 3 3 5 6 6 3 4 2 3 3 3 4 2 5 7 8 10 9 10 10 11 9 12 10 10 3 6 9 9 9 6 7 12 10 12 18 20 19 19 19
8 9 12 11 3 1 5 10 2 4 4 3 4 4 1 6 7 4 5 8 8 8 6 2 5 6 13 17 10 9 3 7 10 12 14 13 8 3 7 7 13 16 19 19 18
8 10 12 1 2 3 10 9 4 4 2 3 2 5 10 1 1 4 5 5 4 7 11 13 4 6 9 5 9 3 8 12 12 9 8 12 11 4 3 7 5 7 4 5 8
8 9 6 4 4 12 9 3 4 4 2 4 3 8 11 6 4 4 7 8 7 5 7 4 13 11 10 10 8 10 8 5 7 5 6 1 6 12 11 11 12 9 11 9 8
8 6 1 4 9 9 4 4 6 4 3 5 5 13 6 6 3 6 5 10 10 9 7 6 5 8 9 13 3 10 11 6 6 4 6 3 7 2 5 4 6 7 10 11 9
3 1 1 6 9 5 4 3 5 3 4 9 12 9 6 2 6 6 8 8 3 10 7 4 5 4 8 4 9 6 7 4 6 13 7 8 9 6 3 6 9 11 12 14 16
1 2 3 12 12 3 1 3 1 3 6 4 5 3 7 7 8 7 6 4 4 3 7 3 8 5 3 6 6 7 2 3 5 4 5 4 7 1 11 12 12 12 13 14 15
1 2 3 13 5 2 3 3 1 1 5 4 4 7 9 11 9 10 7 5 8 7 7 7 8 5 6 10 8 7 7 3 2 5 4 5 2 6 7 9 11 12 12 13 13
1 1 4 7 2 2 4 2 3 3 2 4 6 8 11 12 16 15 16 9 9 9 7 3 5 11 16 8 8 10 8 8 4 4 2 3 2 7 8 10 10 10 11 11 11
2 2 1 4 3 4 4 3 1 2 4 3 4 5 9 12 8 11 16 15 5 4 6 7 5 7 8 7 10 11 7 5 3 2 3 4 2 8 5 10 8 9 9 11 12
2 3 2 3 4 6 3 3 3 2 2 3 6 6 9 10 13 11 14 7 5 12 4 8 7 11 9 2 2 9 11 10 5 3 4 6 12 5 7 5 3 8 9 10 12
2 2 2 4 4 4 2 1 1 2 2 1 3 1 5 6 14 12 18 18 17 4 2 3 7 12 5 2 13 4 7 8 11 10 6 9 11 13 12 4 6 9 8 11 12
2 2 2 5 4 3 2 1 2 1 3 2 3 10 12 9 13 14 11 12 10 4 3 1 4 10 7 8 16 9 10 8 8 5 9 12 12 4 8 6 11 12 10 8 11
2 2 2 4 4 2 3 2 2 7 4 7 9 14 11 7 10 17 17 16 17 14 4 3 5 10 5 8 8 10 11 5 4 4 4 8 12 9 9 4 13 12 12 12 9
Wind_Direction
357 352 346 346 342 340 338 335 333 330 327 327 325 323 321 319 311 296 259 281 198 313 220 157 179 176 191 216 222 233 243 248 247 229 246 238 246 246 269 254 227 231 264 335 332
353 353 348 340 336 336 336 333 329 325 325 326 323 321 320 320 308 284 256 252 239 273 202 188 188 181 196 208 208 220 233 248 261 252 253 250 248 262 225 223 237 245 249 241 310
347 343 337 333 331 335 334 328 324 321 322 320 320 317 319 317 300 71 41 223 223 221 233 225 224 209 223 221 214 226 247 264 246 259 255 255 259 257 245 255 246 262 273 268 274
336 334 331 328 328 329 326 322 317 318 316 313 314 312 314 303 305 106 42 350 210 201 198 179 199 208 228 220 223 251 244 261 261 253 254 251 257 263 261 258 267 267 274 276 268
324 324 327 323 322 323 320 317 314 315 311 304 305 307 295 250 260 110 317 26 164 188 199 195 197 214 229 233 242 242 257 262 260 255 260 264 259 261 259 258 256 261 262 265 264
330 322 323 320 322 321 318 314 312 310 306 297 290 260 250 261 56 205 247 272 231 209 209 214 229 234 269 239 235 296 261 262 261 258 253 255 258 251 255 253 252 255 254 257 258
338 330 327 324 324 319 317 312 312 306 301 293 226 206 245 257 326 247 275 257 257 234 234 220 235 232 294 247 256 265 271 266 256 253 248 261 259 248 251 256 256 258 250 249 251
355 350 333 327 321 321 315 313 310 309 304 253 162 191 253 216 293 271 248 245 232 229 252 248 213 250 242 277 260 266 263 267 248 241 235 234 266 254 239 250 255 251 249 246 249
354 342 337 331 327 320 312 315 320 344 126 129 164 241 278 134 244 243 203 249 200 199 219 272 194 229 224 246 264 233 268 258 277 252 273 235 277 279 269 271 267 257 255 250 249
348 342 336 333 327 319 320 321 173 157 181 233 76 234 240 20 336 318 232 253 228 167 196 209 210 221 215 226 241 252 241 262 265 257 297 281 273 266 267 261 265 271 267 257 254
347 338 337 333 331 331 330 213 258 199 226 274 324 283 290 313 300 247 265 222 204 200 202 197 220 225 230 228 258 276 272 276 276 277 282 275 268 264 262 262 252 254 257 255 253
346 338 329 335 337 344 13 65 53 322 305 286 267 263 271 284 277 252 248 222 204 215 203 186 232 253 243 240 237 250 263 269 281 278 274 272 274 275 261 253 251 249 251 252 249
333 335 339 338 339 36 63 65 341 214 270 288 226 264 347 178 255 273 216 219 227 226 221 246 279 323 237 230 233 239 256 277 286 298 271 271 277 261 250 242 248 245 246 251 252
341 342 348 337 218 19 102 7 336 206 277 94 138 120 177 256 239 245 224 226 214 256 236 261 279 247 239 236 225 247 232 267 279 291 286 351 289 295 282 257 228 235 237 240 235
347 348 352 2 349 36 350 330 329 201 297 85 91 106 271 259 320 139 185 186 231 216 207 230 249 225 233 242 222 260 275 278 279 272 292 271 261 236 244 256 238 233 232 234 231
338 341 336 239 278 347 321 311 199 243 208 129 76 352 351 4 274 138 187 234 285 238 230 262 249 248 250 247 211 275 273 267 256 255 259 263 237 264 306 17 359 356 319 283 258
334 334 322 316 332 325 306 215 236 243 76 47 349 343 325 317 305 259 216 208 229 229 211 226 239 230 233 235 221 231 264 263 219 195 252 174 255 258 305 349 317 317 317 308 302
339 321 5 34 328 326 281 224 247 60 8 15 325 307 284 339 250 321 252 252 223 242 274 276 212 192 187 217 250 213 222 265 283 254 301 227 239 103 57 333 342 328 333 329 327
313 183 15 358 338 317 258 227 7 9 354 337 314 289 266 297 327 310 251 276 294 218 238 231 232 153 193 186 214 157 214 290 278 253 267 245 250 181 73 355 353 356 357 350 342
240 149 47 338 332 296 217 80 93 25 334 327 287 346 295 336 317 342 267 38 336 336 281 271 262 219 153 185 201 257 94 230 219 249 251 249 269 115 359 345 352 355 359 356 350
183 187 30 334 288 65 89 78 13 7 343 305 299 289 290 300 302 304 282 77 3 336 301 243 236 173 175 213 217 187 216 194 264 276 297 302 72 353 8 1 353 360 1 4 357
173 117 2 317 83 59 89 53 353 343 336 277 284 287 279 291 277 268 261 292 355 345 322 232 265 246 242 245 261 239 242 204 250 178 257 317 327 70 46 41 18 9 1 3 9
84 88 55 289 97 105 110 140 245 348 1 342 289 292 309 293 292 260 265 271 321 17 352 345 232 242 232 219 219 223 204 115 67 21 276 310 30 100 51 39 36 29 24 13 18
147 126 110 71 79 110 117 90 103 84 96 305 302 326 328 297 266 257 267 264 270 302 211 314 253 250 270 333 275 191 187 190 188 209 280 270 291 227 226 205 61 50 38 34 29
19 94 17 150 116 92 126 80 23 343 206 304 151 54 2 301 308 263 259 265 280 215 270 148 255 224 212 356 294 248 202 200 213 239 257 300 281 315 321 276 132 95 72 51 38
119 166 177 125 133 133 82 89 319 346 287 310 247 308 313 279 292 302 323 306 278 342 287 233 266 196 200 192 246 246 237 243 245 260 265 282 288 330 337 128 155 124 104 73 66
60 347 261 146 146 165 106 90 279 320 272 246 313 311 304 318 283 289 284 269 259 279 279 256 276 182 184 182 249 253 230 206 250 274 316 322 329 332 335 23 172 131 115 102 76